Glens Falls, NY

12:24 PM EDT on September 24, 2017 (GMT -0400)
Bennett Memorial

Weather History for KGFL - July, 2013

Change the Weather History Date:

Friday, July 19, 2013

  Actual Average Record
Temperature  
Mean Temperature 82 °F 69 °F  
Max Temperature 94 °F 81 °F 95 °F (1977)
Min Temperature 70 °F 57 °F 49 °F (2003)
Degree Days  
Heating Degree Days 0 1  
Month to date heating degree days 0 19  
Since 1 June heating degree days 89 109  
Since 1 July heating degree days 0 19  
Cooling Degree Days 17 5  
Month to date cooling degree days 220 87  
Year to date cooling degree days 353 168  
Since 1 June cooling degree days 320 156  
Growing Degree Days 31 (Base 50)    
Moisture  
Dew Point 71 °F    
Average Humidity 75    
Maximum Humidity 100    
Minimum Humidity 49    
Precipitation  
Precipitation 0.21 in 0.13 in 2.25 in (1971)
Month to date precipitation 2.42 2.45  
Year to date precipitation 20.04 20.49  
Sea Level Pressure  
Sea Level Pressure 29.79 in    
Wind  
Wind Speed 7 mph (SSW)    
Max Wind Speed 25 mph    
Max Gust Speed 35 mph    
Visibility 8 miles    
Events Rain , Thunderstorm    
T = Trace of Precipitation, MM = Missing Value Source: NWS Daily Summary

Daily Weather History Graph

Daily Weather History Graph

Search for Another Location

Airport or City:

Trip Planner

Search our weather history database for the weather conditions in past years. The results will help you decide how hot, cold, wet, or windy it might be!

Date:

Astronomy

Jul. 19, 2013 Rise Set
Actual Time 5:31 AM EDT 8:29 PM EDT
Civil Twilight 4:57 AM EDT 9:03 PM EDT
Nautical Twilight 4:14 AM EDT 9:46 PM EDT
Astronomical Twilight 3:23 AM EDT 10:37 PM EDT
Moon 5:28 PM EDT (7/19) 2:10 AM EDT (7/19)
Length of Visible Light 16h 05m
Length of Day
14h 57m
Waxing Gibbous, 86% of the Moon is Illuminated
Jul 19
Waxing Gibbous
Jul 22
Full
Jul 29
Last Quarter
Aug 6
New
Aug 14
First Quarter

Hourly Weather History & Observations

Time (EDT) Temp. Heat Index Dew Point Humidity Pressure Visibility Wind Dir Wind Speed Gust Speed Precip Events Conditions
12:53 AM 73.9 °F - 72.0 °F 93% 29.92 in 9.0 mi Calm Calm - N/A   Clear
1:53 AM 73.9 °F - 71.1 °F 91% 29.92 in 9.0 mi Calm Calm - N/A   Clear
2:53 AM 73.9 °F - 71.1 °F 91% 29.90 in 8.0 mi Calm Calm - N/A   Clear
3:53 AM 72.0 °F - 71.1 °F 97% 29.88 in 6.0 mi Calm Calm - N/A   Clear
4:33 AM 69.8 °F - 69.8 °F 100% 29.89 in 1.2 mi Calm Calm - N/A   Clear
4:45 AM 71.6 °F - 69.8 °F 94% 29.88 in 4.0 mi South 3.5 mph - N/A   Clear
4:53 AM 72.0 °F - 70.0 °F 93% 29.88 in 7.0 mi SW 3.5 mph - N/A   Clear
5:53 AM 73.9 °F - 71.1 °F 91% 29.88 in 8.0 mi South 5.8 mph - N/A   Clear
6:53 AM 75.0 °F - 71.1 °F 87% 29.87 in 7.0 mi South 5.8 mph - N/A   Clear
7:53 AM 77.0 °F - 72.0 °F 84% 29.86 in 8.0 mi South 12.7 mph - N/A   Clear
8:53 AM 80.1 °F 83.8 °F 72.0 °F 76% 29.86 in 10.0 mi SSW 9.2 mph - N/A   Clear
9:53 AM 82.9 °F 88.8 °F 73.0 °F 72% 29.85 in 10.0 mi South 5.8 mph - N/A   Clear
10:53 AM 88.0 °F 96.5 °F 73.9 °F 63% 29.82 in 10.0 mi SSW 9.2 mph - N/A   Partly Cloudy
11:53 AM 90.0 °F 97.9 °F 73.0 °F 57% 29.80 in 10.0 mi SW 5.8 mph 23.0 mph N/A   Mostly Cloudy
12:53 PM 91.0 °F 99.3 °F 73.0 °F 55% 29.78 in 10.0 mi SW 12.7 mph 19.6 mph N/A   Scattered Clouds
1:53 PM 93.0 °F 100.7 °F 72.0 °F 50% 29.74 in 10.0 mi WSW 12.7 mph 20.7 mph N/A   Scattered Clouds
2:53 PM 91.9 °F 98.4 °F 71.1 °F 50% 29.73 in 10.0 mi SW 17.3 mph 26.5 mph N/A   Scattered Clouds
3:53 PM 91.9 °F 99.5 °F 72.0 °F 52% 29.70 in 10.0 mi SW 10.4 mph 21.9 mph N/A   Mostly Cloudy
4:53 PM 91.9 °F 98.4 °F 71.1 °F 50% 29.69 in 10.0 mi WSW 10.4 mph 18.4 mph N/A   Partly Cloudy
5:53 PM 91.9 °F 98.4 °F 71.1 °F 50% 29.68 in 10.0 mi SW 8.1 mph 19.6 mph N/A   Clear
6:53 PM 91.0 °F 97.6 °F 71.1 °F 52% 29.69 in 10.0 mi SW 9.2 mph - N/A   Clear
7:53 PM 88.0 °F 93.8 °F 71.1 °F 57% 29.69 in 10.0 mi SSW 6.9 mph - N/A   Clear
8:53 PM 82.9 °F 88.8 °F 73.0 °F 72% 29.70 in 10.0 mi SSW 4.6 mph - N/A   Clear
9:53 PM 81.0 °F 85.8 °F 73.0 °F 77% 29.72 in 10.0 mi Calm Calm - N/A Thunderstorm Clear
10:05 PM 80.6 °F 85.4 °F 73.4 °F 79% 29.74 in 10.0 mi NNW 8.1 mph - N/A Thunderstorm Thunderstorm
10:21 PM 75.2 °F - 69.8 °F 83% 29.77 in 1.8 mi West 11.5 mph 34.5 mph 0.10 in Rain , Thunderstorm Heavy Thunderstorms and Rain
10:26 PM 75.2 °F - 71.6 °F 89% 29.79 in 3.0 mi WSW 11.5 mph 20.7 mph 0.11 in Rain , Thunderstorm Light Thunderstorms and Rain
10:43 PM 73.4 °F - 66.2 °F 78% 29.76 in 2.5 mi Variable 6.9 mph 27.6 mph 0.19 in Rain , Thunderstorm Light Thunderstorms and Rain
10:50 PM 73.4 °F - 66.2 °F 78% 29.75 in 8.0 mi SSW 5.8 mph - 0.19 in Rain , Thunderstorm Light Thunderstorms and Rain
10:53 PM 73.0 °F - 66.9 °F 81% 29.74 in 8.0 mi South 5.8 mph - 0.19 in Rain , Thunderstorm Light Rain
11:23 PM 73.4 °F - 71.6 °F 94% 29.74 in 10.0 mi SSE 6.9 mph - 0.02 in   Scattered Clouds
11:53 PM 71.1 °F - 69.1 °F 93% 29.73 in 10.0 mi SSW 6.9 mph - 0.02 in   Clear